星链-67536(STARLINK-67536)

导读 | 豆包AI

STARLINK-67536是美国于2026年1月22日发射的卫星,隶属于SpaceX星链星座网络。星链系统旨在为全球提供高速低延迟宽带互联网服务,该卫星的入轨将进一步扩充星座规模,提升全球网络覆盖密度与服务能力,延续星链项目持续推进部署的节奏。

基本信息
目录编号:
67536
目录名称:
STARLINK-36572
国际标识:
2026-014E
轨道中心:
EARTH
卫星名称:
星链-67536
卫星全名:
星链-67536(STARLINK-67536)
卫星状态:
在轨 (已飞行123 天)
发射日期:
2026-01-22 UTC
国别 :
美国 (US)
星等 :
--
轨道信息
数据来源 国际轨道数据
星历时间: 2026-05-25T10:40:16+0800
5小时前
查看轨道信息
半长轴: 6843.651km
偏心率: 0.0001034
轨道倾角: 97.288°
近地点辐角 76.853°
升交点赤经 32.132°
平近点角 283.283°
近地点: 464.806km
远地点: 466.222km
周期: 93.906分钟
每日圈数: 15.334549
详细信息
固有亮度:
5
最大亮度:
2.5
卫星平台:
Starlink V1.0
覆盖范围:
全球
运营商:
太空探索技术公司
运营商所在国:
美国
制造商(研发单位):
太空探索技术公司
制造商所在国:
美国
使用方式:
暂无
卫星简介
Starlink 计划是 SpaceX 推出的全球卫星互联网项目,通过发射低轨道卫星,为全球尤其是偏远地区提供高速、低延迟的互联网服务。自 2019 年起,Starlink 已部署数千颗卫星,旨在缩小全球数字鸿沟,推动互联网普及。该项目还为军事、航空等行业提供通信支持,带来广泛经济效益。
2D轨道图
3D轨道图
轨道高度分析图
轨道倾角分析图
轨道综合分析图
查看轨道综合分析图